COSMOS 1275 DEB, 13473

Orbit data source: Space-Track

COSMOS 1275 DEB, 13473 is space debris in LEO originally from a launch on Thu, 04 Jun 1981 UTC launched from the Plesetsk Missile And Space Complex (PKMTR). Debris objects in space refer to the collection of defunct objects orbiting the Earth. Examples of debris include non-operational satellites, rocket bodies, and fragments generated from explosions, collisions, or faulty payload assembly.

Loading next visibility...
Identifier
13473, 1981-053FV
Orbit
LEO
Country
Flag of CISCIS
Related business
Manufacturer
Unknown
Mission
Spacecraft
Bus & Motor
Unknown
Mass
Unknown
Launch date (UTC)
1981-06-04 (45 years ago)
Launch vehicle
Unknown
Launch site
Plesetsk Missile And Space Complex (PKMTR)
Object type
Payload
Rocket body
Debris
Shape & HBR
Unknown shape, 0.1 m
Radar Cross Section
Medium (>0.1 m² and <1 m²)

Expand to show TLE details & history
Last TLE update: 21 hours ago

TLE from 21 hours ago
0 COSMOS 1275 DEB
1 13473U 81053FV  26221.22355781  .00001460  00000-0  59757-3 0  9998
2 13473  82.8313 289.8988 0040603 237.8581 177.4393 14.26235271255395
Epoch: 2026-08-09T05:21Z
TLE epoch observation values (Epoch: 2026-08-09T05:21:55.394Z)
Latitude
54.77523°
Longitude
-98.09934°
Altitude
842.551 km
Speed
7.422 km/s
True Right ascension
20h 00m 25s
True Declination
54° 36' 54"
Sunlit
Object was in daylight at epoch
Visualization orbit readout
Latitude
Unknown
Longitude
Unknown
Altitude
Unknown
Speed
Unknown
Apparent Right ascension
Unknown
Apparent Declination
Unknown
Sunlit
N/A
Visualization observer readout
Local Sidereal Time
16:43:51
Azimuth
Unknown
Elevation
Unknown
Doppler factor
Unknown
Orbital elements
Apogee altitude
830.576 km
Perigee altitude
772.274 km
Semi-major axis
7,179.562 km
Eccentricity
0.00406
Inclination
82.8313°
RAAN
289.8988°
Arg. of periapsis
237.8581°
True anomaly
177.45998°
Mean anomaly
177.4393°
Eccentric anomaly
177.44965°
Mean motion
3.56777 °/min
Orbital period
100.9 mins
BSTAR
0.00059757
Loading maneuver chart data...
Computing Atmospheric mass density...
Loading historical data...
Loading historical data...
Loading historical data...
Loading historical data...
Loading historical data...
Loading historical data...
Loading historical data...

Documentation

Showing up to 5 results
|